Presure
201 202 215 219 198 201 206 240 265 275 247 238 235 211 201 201 213 220 208 224 226 221 189 193 187 182 187 183 190 176 162 189 160 177 174 167 161 182 178 182 176 176 177
194 209 215 202 199 211 228 248 297 263 280 241 229 115 197 202 208 219 224 215 234 205 190 197 177 184 180 188 172 172 172 170 176 151 163 161 163 171 166 167 169 165 158
210 143 212 196 211 198 233 252 284 390 260 239 217 200 193 194 207 216 207 220 230 215 193 183 195 192 192 190 189 193 193 155 191 168 158 177 185 164 171 166 165 164 185
215 218 205 205 187 193 240 264 257 382 238 232 215 206 193 183 202 213 204 220 235 205 207 195 189 191 190 182 157 188 178 176 172 156 197 181 166 164 147 158 164 174 179
221 215 196 179 211 187 238 271 289 310 227 230 215 208 194 188 195 209 207 219 223 233 210 188 171 177 176 178 188 175 204 179 181 194 177 169 158 170 157 174 162 180 162
232 227 204 242 233 217 240 280 368 257 228 224 214 206 196 192 202 225 196 219 215 222 213 195 189 179 185 178 190 195 177 177 168 177 180 169 164 158 180 164 155 167 189
228 211 231 226 209 226 252 281 363 237 229 220 208 199 187 210 191 237 205 204 212 206 214 211 189 184 183 180 201 179 166 150 158 190 167 172 178 167 158 174 172 171 189
226 229 228 206 226 246 260 281 325 235 227 211 204 201 193 203 224 203 211 205 212 206 207 204 193 193 208 207 213 205 193 182 178 163 172 181 178 173 179 184 180 162 181
238 237 172 218 245 241 266 294 249 230 221 198 204 200 190 203 217 226 237 208 202 204 203 202 198 196 213 199 192 207 175 188 190 168 171 184 188 167 179 179 183 193 179
230 212 228 239 245 256 234 313 240 228 214 204 204 200 191 191 207 212 200 239 195 199 205 195 204 196 183 193 188 191 188 176 175 181 180 173 180 179 178 186 179 187 171
233 185 234 235 247 264 283 318 233 222 206 204 204 194 194 188 194 219 182 216 225 196 200 192 200 193 201 191 186 193 195 191 183 177 179 175 180 177 174 183 178 174 186
234 232 236 242 257 282 276 318 228 221 211 203 207 198 202 173 206 206 217 228 206 220 206 200 188 206 193 194 193 187 183 184 184 184 184 174 173 179 185 183 188 170 199
178 237 244 250 269 312 372 250 229 219 212 202 197 201 190 181 188 209 210 179 214 260 215 199 199 200 194 187 190 187 187 183 182 183 184 184 187 182 185 187 182 194 187
240 243 250 262 301 267 327 241 227 213 208 204 198 193 194 196 193 207 194 210 211 232 277 231 216 194 194 192 188 185 184 182 183 180 183 188 190 190 193 191 199 190 191
244 248 264 285 268 297 301 233 223 216 209 208 205 200 193 202 193 212 221 191 215 203 243 229 239 211 192 192 193 191 188 184 184 188 186 187 187 189 187 190 184 180 176
257 258 270 263 390 310 255 227 220 208 211 209 202 190 190 192 190 192 192 228 191 209 219 235 207 208 203 198 195 193 194 193 192 204 153 184 177 160 187 171 174 180 186
284 266 258 344 335 283 240 229 216 211 206 208 205 192 191 201 194 178 182 202 203 204 204 199 203 192 187 194 179 186 192 186 182 190 175 158 192 183 182 181 180 206 186
234 253 254 328 279 253 230 230 215 204 211 202 206 192 193 191 191 200 196 183 204 204 194 187 214 216 204 191 192 187 186 184 174 182 178 179 195 195 197 182 157 186 209
266 272 283 298 272 237 220 208 217 207 205 204 195 195 192 203 189 199 199 191 197 189 215 191 206 197 213 201 210 186 188 189 188 198 185 182 201 209 207 206 195 191 187
341 308 284 298 261 232 226 207 217 204 208 201 207 200 177 189 188 183 190 207 207 183 195 220 209 197 201 199 204 209 210 212 206 205 205 202 188 173 176 182 182 175 197
309 288 278 287 250 231 226 208 215 205 204 215 213 189 197 195 194 196 193 201 190 214 216 207 213 204 218 184 202 201 187 202 199 190 192 184 190 194 190 186 194 209 194
291 275 286 269 250 229 224 211 214 195 198 192 191 202 201 199 201 183 211 180 204 196 181 194 198 196 215 209 196 206 211 177 195 223 190 196 206 189 187 191 206 201 199
282 271 280 260 254 232 221 213 210 204 197 180 196 198 210 192 187 187 195 214 194 211 201 190 189 213 190 236 204 187 212 206 198 200 227 209 209 201 197 179 213 203 225
269 260 270 247 243 235 228 215 155 209 202 199 205 224 226 223 229 215 209 187 208 224 199 186 204 208 195 200 218 217 186 182 188 191 185 207 219 245 199 198 211 213 218
269 260 260 248 250 233 224 215 214 204 206 213 201 190 196 190 218 210 198 190 181 191 194 200 180 212 205 198 198 229 219 190 216 215 210 217 216 222 231 207 199 214 214
267 258 249 243 239 250 224 218 214 201 198 197 209 208 203 206 201 193 212 183 194 200 202 201 203 202 208 198 214 199 225 212 211 202 201 218 193 209 237 224 218 209 207
Wind_Speed
50 57 68 41 48 53 57 49 55 41 38 35 32 31 34 35 29 28 26 33 41 51 43 48 46 43 45 42 35 35 38 26 41 26 22 29 39 12 12 6 13 11 13
52 65 65 39 47 50 57 55 53 36 36 34 32 27 36 33 28 29 32 29 43 48 43 51 41 48 43 42 39 40 38 37 33 46 38 39 34 25 29 25 22 28 34
65 39 55 45 48 57 54 60 43 32 34 34 33 35 37 37 27 30 25 30 44 52 51 46 45 45 43 37 34 36 37 42 32 36 44 32 30 38 26 31 33 34 21
70 65 51 49 59 42 55 60 33 32 35 34 35 33 35 39 28 32 25 33 41 52 58 57 49 41 43 38 39 44 38 47 40 47 39 31 35 40 41 42 34 29 25
69 59 45 63 55 40 49 56 33 36 37 40 37 34 36 39 30 32 30 33 34 41 65 51 35 38 38 40 46 36 54 46 45 43 33 42 48 44 47 40 43 28 40
64 59 49 57 54 51 49 50 36 41 38 41 38 35 34 38 31 29 35 34 36 34 53 60 53 45 45 49 49 49 42 42 41 42 42 42 51 53 46 52 50 42 42
60 53 54 41 53 48 56 40 34 42 41 41 38 36 39 31 32 28 43 33 39 37 42 53 51 50 45 48 60 51 41 47 47 44 49 50 49 55 55 49 47 39 43
58 57 43 49 48 50 51 37 35 45 44 39 39 38 34 33 27 32 40 42 40 43 43 48 50 50 62 57 59 56 40 40 49 51 51 49 52 54 52 51 48 44 48
69 59 51 42 54 48 48 38 48 46 43 36 43 37 34 33 26 24 35 50 41 43 46 46 45 43 56 44 37 49 40 41 46 53 52 52 53 55 53 52 57 58 52
61 45 45 46 49 49 45 39 52 48 45 42 42 35 32 33 29 29 34 43 47 41 46 41 49 45 37 45 39 45 47 44 47 49 50 54 56 54 52 57 55 60 51
61 37 46 43 56 56 45 43 53 49 42 45 45 38 33 34 34 26 34 41 48 51 43 37 44 43 49 48 44 48 49 47 48 47 52 54 60 53 50 58 58 58 68
60 52 44 53 58 52 44 47 54 52 48 45 47 40 34 42 25 29 29 32 38 51 58 44 34 53 45 47 49 47 47 50 54 56 60 59 53 54 57 64 69 54 72
34 51 52 56 56 42 47 61 57 52 48 47 43 41 38 42 37 26 31 32 32 18 49 47 47 49 51 47 50 50 54 56 58 58 63 65 65 57 66 72 73 76 74
56 52 52 53 45 44 48 62 57 50 51 52 46 41 37 33 34 28 35 27 29 19 20 37 59 54 56 58 56 56 54 56 61 60 66 68 65 69 71 74 74 71 72
57 53 55 48 44 46 53 62 56 55 56 55 51 44 39 35 35 29 29 35 27 29 14 33 44 67 62 62 61 60 62 62 67 72 69 66 67 65 65 70 70 69 70
53 54 48 42 41 55 63 62 56 54 59 56 51 44 44 41 39 37 31 30 38 35 30 23 41 48 56 59 61 65 69 71 73 70 36 65 62 49 68 64 70 74 79
50 48 51 37 53 61 64 64 57 59 61 57 54 48 47 42 38 38 40 29 38 35 37 39 49 49 49 55 51 56 63 64 62 69 59 44 69 66 70 71 72 76 81
63 56 50 42 60 65 62 66 62 57 65 54 54 51 48 45 45 41 39 40 36 40 42 39 47 48 47 58 63 60 64 64 59 68 67 70 74 70 72 71 50 66 79
54 56 49 57 67 67 63 60 67 63 60 56 51 53 48 46 49 44 40 44 42 43 41 50 49 48 50 55 44 63 65 66 69 66 77 76 70 71 72 71 79 82 82
52 56 56 60 72 69 68 58 67 60 59 50 52 46 48 52 53 52 50 45 47 48 47 45 50 53 53 55 55 55 55 56 60 61 65 68 76 66 68 78 79 73 91
63 64 63 67 76 71 67 63 67 52 54 53 50 53 57 56 58 57 54 47 51 47 45 47 45 51 48 58 55 60 61 62 66 69 72 73 73 80 82 83 84 88 95
71 68 65 69 76 72 70 63 63 53 57 55 55 57 58 58 56 52 51 47 53 54 46 53 54 52 50 53 55 56 55 49 56 60 76 78 78 83 83 85 80 87 91
73 69 71 70 71 75 72 67 64 62 61 46 60 58 69 62 48 50 57 56 57 56 62 58 57 55 56 46 56 61 61 64 66 67 65 72 75 82 80 77 84 90 85
72 69 74 71 72 72 74 72 29 69 68 64 53 54 64 65 61 60 61 58 58 58 61 58 63 60 54 52 51 60 67 62 69 72 69 71 76 80 86 87 83 82 84
77 76 74 70 76 75 75 72 73 68 70 75 74 53 58 46 67 64 58 57 54 62 63 66 53 68 55 58 61 62 64 69 70 70 73 76 80 86 88 79 76 89 91
81 78 75 72 70 75 73 74 74 68 64 62 78 80 76 75 69 51 67 48 62 61 68 67 70 67 69 63 70 60 70 71 72 67 70 83 68 85 88 89 90 91 94
Wind_Direction
288 289 293 291 272 275 282 299 303 283 259 245 230 232 242 250 252 254 239 225 212 219 216 218 222 227 231 233 230 231 235 227 245 229 242 251 264 223 237 246 263 278 259
272 287 291 277 280 291 303 299 303 271 244 238 226 242 244 249 250 250 243 242 214 225 216 223 225 229 231 230 232 233 234 225 222 260 249 254 259 256 254 253 254 263 267
277 277 290 271 289 274 300 298 292 262 233 228 228 229 244 250 250 245 244 240 204 218 218 231 221 231 233 233 234 243 251 250 247 232 249 247 242 259 247 258 256 262 284
279 282 272 282 272 275 295 294 268 252 232 224 226 228 242 251 248 241 243 232 215 215 219 222 228 235 238 242 230 244 230 235 232 247 252 235 244 254 269 266 262 273 275
275 271 257 267 282 272 282 293 262 232 232 220 226 230 239 250 250 242 247 231 219 212 213 229 236 235 242 239 242 217 254 243 251 254 236 240 256 250 262 254 264 270 269
270 270 266 283 285 273 278 291 276 223 230 224 224 234 237 247 246 233 254 228 225 207 214 220 226 232 239 237 243 239 232 234 234 240 252 246 250 261 262 254 266 263 281
270 263 278 267 263 274 283 287 259 222 221 223 229 236 242 242 249 241 240 239 228 218 215 217 225 235 241 239 241 239 248 257 245 251 244 254 264 256 263 269 271 268 289
268 271 259 252 271 280 283 276 240 216 217 221 230 235 239 242 235 245 227 245 226 231 223 217 225 232 229 233 232 233 248 244 243 244 250 263 263 264 275 281 280 262 289
267 268 263 257 279 267 281 267 207 213 215 224 228 232 235 245 240 247 229 231 242 230 230 235 238 239 229 248 247 244 240 256 261 249 254 266 269 261 276 281 289 293 289
266 262 265 270 274 274 264 257 207 207 214 220 228 229 229 244 245 242 243 225 247 242 234 237 235 244 251 249 253 250 251 250 254 259 263 263 272 275 279 287 287 293 281
264 249 264 257 274 269 255 241 206 207 215 221 227 223 224 239 241 249 242 236 228 246 247 242 240 243 242 246 250 249 251 254 260 262 268 271 274 278 282 287 288 285 287
260 262 265 272 268 267 238 227 208 208 211 220 227 227 229 242 238 247 247 233 240 232 239 253 251 244 248 248 250 255 259 263 264 265 264 266 273 283 290 289 287 284 281
238 262 263 265 261 250 225 199 205 209 210 221 223 228 225 234 235 244 249 239 235 275 231 244 249 244 248 255 253 249 250 254 260 265 269 272 275 284 282 277 279 277 284
258 257 258 261 259 226 215 200 203 209 211 221 221 225 226 229 229 236 240 243 236 243 238 227 228 240 240 242 245 251 257 260 264 266 268 270 274 272 272 272 271 278 280
252 255 266 255 227 216 199 200 204 205 213 221 222 223 226 234 233 243 236 244 233 235 214 226 222 224 237 245 248 251 253 257 260 261 265 270 269 269 272 273 277 282 285
254 258 249 230 214 199 192 201 202 210 212 218 221 220 227 230 231 233 237 232 248 228 217 216 225 228 232 238 244 248 250 252 255 256 281 265 271 289 270 281 282 281 280
256 241 231 229 201 192 193 194 203 209 217 219 221 222 226 229 233 243 237 244 239 237 229 235 221 230 238 237 251 249 248 254 260 262 269 280 269 274 275 277 279 277 280
222 228 223 205 194 188 198 192 203 214 216 219 221 223 227 230 232 238 239 240 242 238 238 241 220 217 228 237 243 251 254 260 275 269 275 275 270 274 275 281 288 284 281
226 222 206 199 191 191 204 214 202 213 220 220 220 223 229 232 236 240 239 241 243 243 243 242 230 232 227 235 238 251 254 258 262 255 269 274 273 271 273 273 278 281 286
199 193 196 200 188 193 199 218 205 219 221 224 226 230 238 235 238 245 245 253 249 250 245 245 244 244 237 238 237 238 241 246 251 255 257 261 268 282 283 283 285 293 276
188 192 198 192 188 195 198 213 208 214 218 226 226 227 234 237 239 239 245 249 249 253 250 253 252 247 251 253 253 251 260 255 254 261 259 268 267 264 272 278 280 276 280
189 195 196 190 191 197 199 213 209 220 222 228 228 227 231 237 244 247 247 251 249 250 254 252 252 256 258 255 259 255 258 276 266 259 263 263 261 270 274 274 281 279 282
191 194 193 191 192 197 204 209 210 212 224 235 234 238 233 240 244 247 245 245 247 249 249 258 263 259 266 266 258 260 257 258 263 267 267 263 263 265 271 284 277 281 284
194 197 193 195 196 198 201 209 245 211 218 230 233 234 236 239 237 238 245 253 254 253 255 265 263 263 259 263 269 261 267 274 272 270 274 273 278 285 276 280 282 284 294
195 194 196 197 198 200 204 210 211 217 220 221 230 244 249 246 245 248 247 248 256 258 259 262 262 270 266 257 264 282 274 271 277 276 275 282 286 289 289 292 284 295 299
198 197 201 201 203 201 206 211 214 223 228 234 229 235 244 246 250 247 251 253 257 261 264 268 272 275 278 273 281 273 282 278 280 283 287 292 289 292 292 292 298 299 301